Regional Weather Roundup
Issued by NWS

Home | Current Version | Previous Version | Graphics & Text | Print | Product List | Glossary Off
Versions: 1 2 3 4 5 6 7 8 9 10 11 12 13 14 15 16 17 18 19 20 21 22 23 24 25 26 27 28 29 30 31 32 33 34 35 36 37 38 39 40 41 42 43 44 45 46 47 48 49 50

000
ASUS43 KDTX 271710
RWRMI
MICHIGAN HOURLY REGIONAL WEATHER ROUNDUP
NATIONAL WEATHER SERVICE DETROIT/PONTIAC MI
100 PM EDT THU APR 27 2017

NOTE: "FAIR" INDICATES FEW OR NO CLOUDS BELOW 12,000 FEET WITH NO
SIGNIFICANT WEATHER AND/OR OBSTRUCTION TO VISIBILITY.

MIZ047>049-052>055-059>063-066>070-074>076-081>083-271800-
SOUTHEAST LOWER MICHIGAN

CITY           SKY/WX    TMP DP  RH WIND       PRES   REMARKS
ADRIAN         CLOUDY    62  58  86 SW21G28   29.53S
ALMA           CLOUDY    64  51  61 W23G41    29.45R
ANN ARBOR      LGT RAIN  61  58  90 S14       29.51F
BAD AXE        CLOUDY    70  53  54 S25G35    29.47S
CARO           DRIZZLE   64  57  79 S10G20    29.46S
DETROIT CITY   RAIN      63  59  87 SW16G23   29.53R FOG
DETROIT        LGT RAIN  64  60  87 S12       29.52F
FLINT          LGT RAIN  63  56  78 S14G22    29.48R
GROSSE ILE     LGT RAIN  63  60  90 SW10      29.52S
HILLSDALE      CLOUDY    61  52  72 SW16G28   29.53R
HOWELL         LGT RAIN  61  56  84 S13       29.49F

CITY           SKY/WX    TMP DP  RH WIND       PRES   REMARKS
JACKSON        CLOUDY    64  55  72 SW21G31   29.50R
LAMBERTVILLE   CLOUDY    64  60  84 SW10G17   29.53S
LANSING        CLOUDY    70  49  47 SW18G39   29.47R
LAPEER         CLOUDY    67  54  61 SW17      29.50S
MASON          CLOUDY    64  55  74 SW20G30   29.49R
MONROE         PTSUNNY   65  60  84 S14G24    29.51F
MT. CLEMENS    RAIN      64  61  88 SW16      29.51R
PONTIAC        LGT RAIN  62  56  80 S12G23    29.50S
PORT HOPE        N/A     73  57  57 S16G25    29.43F
PORT HURON     CLOUDY    73  55  53 S14G24    29.47F
TRI CITIES     CLOUDY    68  55  63 S18G29    29.43S
MIDLAND        PTSUNNY   71  50  48 S21G35    29.40F
TROY           LGT RAIN  64  57  77 SW16G25   29.55R
SAGINAW HB     LGT RAIN  64  54  68 S18G24    29.45R
$$
MIZ043>046-050>051-056>058-064>065-071>073-077>080-271800-
SOUTHWEST LOWER MICHIGAN

CITY           SKY/WX    TMP DP  RH WIND       PRES   REMARKS
BATTLE CREEK   PTSUNNY   62  47  57 SW21G32   29.53R
BENTON HARBOR  CLOUDY    51  42  71 SW20G31   29.57R
BIG RAPIDS     CLOUDY    52  43  72 SW16G35   29.45R
COLDWATER      PTSUNNY   60  46  59 SW22G29   29.55R
FREMONT        CLOUDY    46  43  88 SW17G30   29.50R
HOLLAND        CLOUDY    49  44  83 SW20G29   29.55R
GRAND RAPIDS   CLOUDY    52  45  77 W25G38    29.53R
IONIA          CLOUDY    59  46  61 W26G39    29.50R
KALAMAZOO      PTSUNNY   55  43  63 SW20G25   29.56R
LUDINGTON      CLOUDY    43  43  99 SW17G30   29.45R FOG
MARSHALL       PTSUNNY   62  48  58 SW18G29   29.52R
MOUNT PLEASANT CLOUDY    65  49  57 SW24G32   29.42R
MUSKEGON       CLOUDY    49  43  80 SW22G28   29.52R
SOUTH HAVEN    CLOUDY    48  42  81 SW14G24   29.56R
$$
MIZ016>042-271800-
NORTHERN LOWER MICHIGAN

CITY           SKY/WX    TMP DP  RH WIND       PRES   REMARKS
ALPENA         PTSUNNY   76  54  46 S25G35    29.36S
BEAVER ISLAND  MOSUNNY   65  54  67 S12G23    29.28S
BELLAIRE       CLOUDY    70  49  46 S21G36    29.29F
CADILLAC       PTSUNNY   60  47  60 SW29G43   29.39R
CHARLEVOIX     MOSUNNY   70  52  53 S17G29    29.31S
FRANKFORT      CLOUDY    49  43  79 S18G37    29.37R
GAYLORD        LGT RAIN  69  50  50 S20G31    29.33F
GRAYLING       CLOUDY    70  51  51 S18G37    29.35F
HARBOR SPRINGS CLOUDY    67  51  56 S12G21    29.29F
HOUGHTON LAKE  LGT RAIN  63  51  65 S21G31    29.38R
MANISTEE       CLOUDY    46  42  86 SW17G25   29.42R
OSCODA         CLOUDY    72  51  47 S22G36    29.41F
PELLSTON       CLOUDY    72  50  45 S17G25    29.29F
ROGERS CITY    CLOUDY    73  52  48 S12G23    29.35R
TRAVERSE CITY  PTSUNNY   68  48  48 S17G33    29.28R
$$
MIZ007>008-015-271800-
EASTERN UPPER MICHIGAN

CITY           SKY/WX    TMP DP  RH WIND       PRES   REMARKS
KINROSS        PTSUNNY   67  54  63 SE17G26   29.31R
MACKINAC ISLAN CLOUDY    69  51  54 S12G23    29.30F
NEWBERRY       LGT RAIN  54  53  97 W7        29.29S
S. S. MARIE    PTSUNNY   65  53  65 SE17G23   29.30F
MUNISING         N/A     34  32  92 NW12      29.31S WCI  25
$$
MIZ004>006-011>014-085-271800-
CENTRAL UPPER MICHIGAN

CITY           SKY/WX    TMP DP  RH WIND       PRES   REMARKS
MANISTIQUE     CLOUDY    40  39  97 N6        29.28S
ESCANABA       LGT RAIN  37  36  96 NW8       29.30S FOG     WCI  31
MENOMINEE      LGT RAIN  39  37  93 VRB7      29.35R FOG     WCI  34
SAWYER-GWINN   CLOUDY    32  32 100 N5        29.31S FOG     WCI  27
$$
MIZ001>003-009>011-084-271800-
WESTERN UPPER MICHIGAN

CITY           SKY/WX    TMP DP  RH WIND       PRES   REMARKS
IRON MOUNTAIN  LGT RAIN  35  30  82 NW14      29.32R WCI  26
HOUGHTON       SNOW      28  24  85 NW16      29.35S VSB 1/4 WCI  16
COPPER HARBOR    N/A     31  30  96 N23       29.32F WCI  18
IRONWOOD       LGT SNOW  26  24  92 W10       29.45R VSB 3/4 WCI  16
$$

ABBREVIATIONS USED IN REMARKS
   TC - TEMPERATURE IN CELSIUS
  WCI - WIND CHILL INDEX
   HX - HEAT INDEX
  VSB - VISIBILITY




USA.gov is the U.S. government's official web portal to all federal, state and local government web resources and services.